Weather in Krutoy Maydan

Russia / Nizhny Novgorod Oblast'     55°35′16″N   44°04′21″E
temp.,
°C
wind,
m/s
gust,
m/s
humid.,
%
clouds,
%
prec.,
mm/h
press.,
hPa
HPBL,
m
16 june, wed
wed1600:00+15ene359795 2.3 1010104
03:00+15ese129523 2.4 100913
06:00+18n12925 0.1 1007136
09:00+22nnw337818 0.1 1007654
12:00+25nnw45608 0.0 10071515
15:00+23nnw68702 0.3 10081084
18:00+22nnw59740 0.1 1010870
21:00+17nw49805 0.1 1012235
17 june, thu
thu1700:00+15nnw513640 0.0 1014347
03:00+11nnw39650 0.0 1017152
06:00+13nnw37712 0.0 1018185
09:00+18nnw57530 0.0 1019749
12:00+20nw68460 0.0 10201569
15:00+21nnw58480 0.0 10211709
18:00+19n59591 0.0 1022847
21:00+13nw34685 0.0 102454
18 june, fri
fri1800:00+12n36810 0.0 102597
03:00+10ne11840 0.0 102610
06:00+14nw01730 0.0 102788
09:00+19wnw125635 0.0 1027659
12:00+22n24460 0.0 10271733
15:00+23n24477 0.0 10271754
18:00+22n126639 0.0 1026450
21:00+16s3380100 0.0 102631
19 june, sat
sat1900:00+15sw3687100 0.0 102794
03:00+14wsw34930 0.0 102764
06:00+17w35845 0.0 1027161
09:00+22w4667100 0.0 1027596
12:00+26w4654100 0.0 10261566
15:00+27w465591 0.0 10251836
18:00+25w35675 0.0 1024303
21:00+19w33795 0.0 102543
20 june, sun
sun2000:00+17w36915 0.0 102591
03:00+16w33925 0.0 102645
06:00+19w35810 0.0 1026156
09:00+24w34640 0.0 1026583
12:00+26wsw34535 0.0 10251287
15:00+27wsw44505 0.0 10241387
18:00+26sw25650 0.0 1023246
21:00+20sw23880 0.0 102344